Date String (YYYY-MM-DD hh:mm:ss) UTC,Instrument flags,absolute air pressure of the measurement (hPa),sample flow rate (lpm),inlet stack bypass flow (lpm),air temperature of the measurement (°C),ambient temperature measured by the external sensor (°C),aerosol sample conditioner tube jacket temperature (°C),OPC LED temperature (°C),internal box temperature (°C),relative humidity of the measurement (%),span deviation,mass concentration of particles derived from Lorenz-Mie calculation of OPC scattering (μg/m³),mass concentration of particles derived from Lorenz-Mie calculation of OPC scattering (μg/m³),mass concentration of particles derived from Lorenz-Mie calculation of OPC scattering (μg/m³)
DateTimeUTC,F1_M11,P_M11,Q1_M11,Q2_M11,T1_M11,T2_M11,T3_M11,T4_M11,T5_M11,U1_M11,ZSPAN_M11,X2_M11,X0_M11,X1_M11
2024-04-04 20:00:00,SystemResetWarning,0824.7,5.00,000.00,025.8,025.2,000.0,034.2,027.6,009.7,0000.0,0002.69,0009.37,0001.99
2024-04-04 20:01:00,SystemResetWarning,0824.7,5.00,000.00,025.9,025.3,000.0,034.2,027.7,009.6,0000.0,0002.72,0009.42,0002.00
2024-04-04 20:02:00,SystemResetWarning,0824.7,5.01,000.00,025.9,025.3,000.0,034.2,027.7,009.6,0000.0,0002.70,0007.98,0002.01
2024-04-04 20:03:00,SystemResetWarning,0824.7,5.01,000.00,025.9,025.4,000.0,034.2,027.7,009.5,0000.0,0002.71,0007.83,0002.01
2024-04-04 20:04:00,SystemResetWarning,0824.7,5.00,000.00,026.0,025.4,000.0,034.3,027.8,009.3,0000.0,0002.73,0008.16,0002.02
2024-04-04 20:05:00,SystemResetWarning,0824.7,4.99,000.00,026.0,025.4,000.0,034.3,027.8,009.3,0000.0,0002.70,0008.40,0002.01
2024-04-04 20:06:00,SystemResetWarning,0824.7,4.99,000.00,026.0,025.5,000.0,034.3,027.8,009.1,0000.0,0002.76,0008.31,0002.02
2024-04-04 20:07:00,SystemResetWarning,0824.7,5.00,000.00,026.0,025.5,000.0,034.3,027.9,009.2,0000.0,0002.68,0008.43,0002.02
2024-04-04 20:08:00,SystemResetWarning,0824.7,5.00,000.00,026.1,025.5,000.0,034.3,027.9,009.3,0000.0,0002.65,0008.11,0002.02
2024-04-04 20:09:00,SystemResetWarning,0824.7,5.00,000.00,026.0,025.0,000.0,034.4,027.5,009.4,0000.0,0002.62,0007.82,0002.02
2024-04-04 20:10:00,SystemResetWarning,0824.6,5.00,000.00,025.7,022.9,000.0,034.4,026.4,010.0,0000.0,0002.60,0008.06,0002.03
2024-04-04 20:11:00,SystemResetWarning,0824.5,5.00,000.00,025.3,022.0,000.0,034.4,025.8,009.7,0000.0,0002.74,0008.76,0002.08
2024-04-04 20:12:00,SystemResetWarning,0824.5,5.02,000.00,025.1,022.3,000.0,034.2,026.0,009.3,0000.0,0002.76,0008.84,0002.12
2024-04-04 20:13:00,SystemResetWarning,0824.5,5.00,000.00,025.1,022.7,000.0,034.1,026.3,009.6,0000.0,0002.82,0008.95,0002.16
2024-04-04 20:14:00,SystemResetWarning,0824.5,5.00,000.00,025.1,023.1,000.0,034.0,026.5,009.5,0000.0,0002.85,0009.14,0002.18
2024-04-04 20:15:00,SystemResetWarning,0824.5,4.99,000.00,025.1,023.5,000.0,033.9,026.6,009.3,0000.0,0002.91,0009.50,0002.21
2024-04-04 20:16:00,SystemResetWarning,0824.4,5.00,000.00,025.1,023.8,000.0,033.8,026.7,009.4,0000.0,0003.03,0009.37,0002.23
2024-04-04 20:17:00,SystemResetWarning,0824.4,5.01,000.00,025.1,024.0,000.0,033.8,026.9,009.8,0000.0,0003.07,0009.28,0002.26
2024-04-04 20:18:00,SystemResetWarning,0824.4,5.00,000.00,025.2,024.2,000.0,033.8,027.0,009.8,0000.0,0003.12,0009.29,0002.28
2024-04-04 20:19:00,SystemResetWarning,0824.4,5.00,000.00,025.2,024.4,000.0,033.8,027.0,009.6,0000.0,0003.16,0009.33,0002.29
2024-04-04 20:20:00,SystemResetWarning,0824.4,4.99,000.00,025.3,024.5,000.0,033.8,027.1,009.4,0000.0,0003.18,0009.31,0002.29
2024-04-04 20:21:00,SystemResetWarning,0824.4,4.99,000.00,025.3,024.7,000.0,033.8,027.2,009.6,0000.0,0003.20,0008.71,0002.28
2024-04-04 20:22:00,SystemResetWarning,0824.4,5.00,000.00,025.4,024.8,000.0,033.8,027.2,009.2,0000.0,0003.14,0008.13,0002.22
2024-04-04 20:23:00,SystemResetWarning,0824.4,5.00,000.00,025.4,024.9,000.0,033.8,027.3,009.2,0000.0,0003.13,0008.20,0002.18
2024-04-04 20:24:00,SystemResetWarning,0824.4,5.01,000.00,025.5,025.0,000.0,033.8,027.3,009.9,0000.0,0003.13,0008.23,0002.17
2024-04-04 20:25:00,SystemResetWarning,0824.4,5.00,000.00,025.5,025.0,000.0,033.8,027.4,009.4,0000.0,0003.11,0008.13,0002.15
2024-04-04 20:26:00,SystemResetWarning,0824.3,5.00,000.00,025.6,025.1,000.0,033.8,027.4,008.9,0000.0,0003.08,0007.40,0002.10
2024-04-04 20:27:00,SystemResetWarning,0824.4,5.00,000.00,025.6,025.1,000.0,033.9,027.5,009.1,0000.0,0003.03,0007.61,0002.08
2024-04-04 20:28:00,SystemResetWarning,0824.3,5.00,000.00,025.7,025.2,000.0,033.9,027.5,009.0,0000.0,0002.95,0007.83,0002.04
2024-04-04 20:29:00,SystemResetWarning,0824.3,5.00,000.00,025.7,025.2,000.0,033.9,027.6,009.1,0000.0,0002.90,0008.63,0002.01
2024-04-04 20:30:00,SystemResetWarning,0824.3,4.99,000.00,025.7,025.3,000.0,033.9,027.6,009.2,0000.0,0002.88,0008.71,0001.99
2024-04-04 20:31:00,SystemResetWarning,0824.3,5.00,000.00,025.8,025.3,000.0,034.0,027.6,009.4,0000.0,0002.90,0008.56,0001.99
2024-04-04 20:32:00,SystemResetWarning,0824.3,5.01,000.00,025.8,025.4,000.0,034.0,027.7,009.8,0000.0,0002.88,0008.49,0001.97
2024-04-04 20:33:00,SystemResetWarning,0824.3,5.01,000.00,025.9,025.4,000.0,034.0,027.7,009.3,0000.0,0002.91,0008.51,0001.97
2024-04-04 20:34:00,SystemResetWarning,0824.3,5.00,000.00,025.9,025.5,000.0,034.1,027.7,009.4,0000.0,0002.95,0008.62,0001.97
2024-04-04 20:35:00,SystemResetWarning,0824.1,4.99,000.00,025.9,025.1,000.0,034.1,027.5,009.4,0000.0,0002.95,0008.66,0001.95
2024-04-04 20:36:00,SystemResetWarning,0824.1,4.99,000.00,025.6,023.0,000.0,034.2,026.4,009.6,0000.0,0002.97,0008.58,0001.94
2024-04-04 20:37:00,SystemResetWarning,0824.0,5.02,000.00,025.1,021.8,000.0,034.1,025.6,009.6,0000.0,0002.98,0008.79,0001.96
2024-04-04 20:38:00,SystemResetWarning,0824.0,5.00,000.00,024.9,022.1,000.0,034.0,025.7,009.8,0000.0,0002.98,0009.28,0001.96
2024-04-04 20:39:00,SystemResetWarning,0824.0,4.99,000.00,024.9,022.5,000.0,033.9,026.0,009.5,0000.0,0003.02,0009.20,0002.00
2024-04-04 20:40:00,SystemResetWarning,0824.1,5.01,000.00,024.9,022.9,000.0,033.7,026.3,009.7,0000.0,0003.09,0008.43,0002.00
2024-04-04 20:41:00,SystemResetWarning,0824.0,5.01,000.00,024.9,023.2,000.0,033.7,026.5,009.8,0000.0,0003.07,0008.44,0002.02
2024-04-04 20:42:00,SystemResetWarning,0824.0,4.99,000.00,024.9,023.5,000.0,033.6,026.6,009.5,0000.0,0003.06,0009.30,0002.04
2024-04-04 20:43:00,SystemResetWarning,0824.0,5.00,000.00,025.0,023.8,000.0,033.6,026.7,009.5,0000.0,0003.12,0010.47,0002.08
2024-04-04 20:44:00,SystemResetWarning,0824.0,5.00,000.00,025.0,024.0,000.0,033.6,026.8,009.8,0000.0,0003.10,0011.15,0002.09
2024-04-04 20:45:00,SystemResetWarning,0824.0,5.01,000.00,025.1,024.2,000.0,033.6,026.9,009.9,0000.0,0003.08,0011.03,0002.11
2024-04-04 20:46:00,SystemResetWarning,0824.0,5.01,000.00,025.1,024.4,000.0,033.6,026.9,010.3,0000.0,0003.04,0010.69,0002.12
2024-04-04 20:47:00,SystemResetWarning,0824.0,5.00,000.00,025.2,024.5,000.0,033.6,027.0,009.9,0000.0,0003.00,0010.69,0002.13
2024-04-04 20:48:00,SystemResetWarning,0824.0,4.99,000.00,025.2,024.6,000.0,033.6,027.1,009.4,0000.0,0002.96,0010.69,0002.11
2024-04-04 20:49:00,SystemResetWarning,0824.0,5.00,000.00,025.3,024.7,000.0,033.6,027.1,009.8,0000.0,0002.95,0009.93,0002.11
2024-04-04 20:50:00,SystemResetWarning,0824.0,5.00,000.00,025.3,024.8,000.0,033.6,027.2,009.2,0000.0,0002.95,0009.76,0002.10
2024-04-04 20:51:00,SystemResetWarning,0824.0,5.01,000.00,025.4,024.9,000.0,033.6,027.3,009.1,0000.0,0002.88,0011.02,0002.09
2024-04-04 20:52:00,SystemResetWarning,0824.0,5.01,000.00,025.4,025.0,000.0,033.7,027.3,009.3,0000.0,0002.92,0011.23,0002.07
2024-04-04 20:53:00,SystemResetWarning,0824.0,5.01,000.00,025.5,025.1,000.0,033.7,027.4,009.5,0000.0,0002.92,0010.38,0002.06
2024-04-04 20:54:00,SystemResetWarning,0824.0,4.98,000.00,025.5,025.1,000.0,033.7,027.4,009.0,0000.0,0002.85,0009.69,0002.03
2024-04-04 20:55:00,SystemResetWarning,0824.0,5.00,000.00,025.6,025.2,000.0,033.8,027.5,009.3,0000.0,0002.89,0009.89,0002.01
2024-04-04 20:56:00,SystemResetWarning,0824.0,5.00,000.00,025.6,025.3,000.0,033.8,027.5,009.2,0000.0,0002.91,0011.71,0002.00
2024-04-04 20:57:00,SystemResetWarning,0824.0,5.01,000.00,025.7,025.3,000.0,033.8,027.6,009.7,0000.0,0002.97,0011.95,0001.99
2024-04-04 20:58:00,SystemResetWarning,0824.0,5.01,000.00,025.7,025.4,000.0,033.9,027.6,009.6,0000.0,0002.95,0012.34,0001.98
2024-04-04 20:59:00,SystemResetWarning,0824.0,5.00,000.00,025.8,025.4,000.0,033.9,027.6,009.3,0000.0,0002.94,0012.34,0001.99
